"Time","Value","Approval","myLocation"
"2023-03-29 00:00",21.491,"Working","OW424"
"2023-03-29 01:00",21.486,"Working","OW424"
"2023-03-29 02:00",21.485,"Working","OW424"
"2023-03-29 03:00",21.485,"Working","OW424"
"2023-03-29 04:00",21.488,"Working","OW424"
"2023-03-29 05:00",21.491,"Working","OW424"
"2023-03-29 06:00",21.497,"Working","OW424"
"2023-03-29 07:00",21.502,"Working","OW424"
"2023-03-29 08:00",21.509,"Working","OW424"
"2023-03-29 09:00",21.514,"Working","OW424"
"2023-03-29 10:00",21.519,"Working","OW424"
"2023-03-29 11:00",21.524,"Working","OW424"
"2023-03-29 12:00",21.53,"Working","OW424"
"2023-03-29 13:00",21.532,"Working","OW424"
"2023-03-29 14:00",21.534,"Working","OW424"
"2023-03-29 15:00",21.53,"Working","OW424"
"2023-03-29 16:00",21.523,"Working","OW424"
"2023-03-29 17:00",21.51,"Working","OW424"
"2023-03-29 18:00",21.496,"Working","OW424"
"2023-03-29 19:00",21.485,"Working","OW424"
"2023-03-29 20:00",21.475,"Working","OW424"
"2023-03-29 21:00",21.469,"Working","OW424"
"2023-03-29 22:00",21.465,"Working","OW424"
"2023-03-29 23:00",21.465,"Working","OW424"
"2023-03-30 00:00",21.466,"Working","OW424"
"2023-03-30 01:00",21.467,"Working","OW424"
"2023-03-30 02:00",21.47,"Working","OW424"
"2023-03-30 03:00",21.473,"Working","OW424"
"2023-03-30 04:00",21.477,"Working","OW424"
"2023-03-30 05:00",21.482,"Working","OW424"
"2023-03-30 06:00",21.488,"Working","OW424"
"2023-03-30 07:00",21.493,"Working","OW424"
"2023-03-30 08:00",21.498,"Working","OW424"
"2023-03-30 09:00",21.504,"Working","OW424"
"2023-03-30 10:00",21.509,"Working","OW424"
"2023-03-30 11:00",21.51,"Working","OW424"
"2023-03-30 12:00",21.507,"Working","OW424"
"2023-03-30 13:00",21.5,"Working","OW424"
"2023-03-30 14:00",21.487,"Working","OW424"
"2023-03-30 15:00",21.474,"Working","OW424"
"2023-03-30 16:00",21.458,"Working","OW424"
"2023-03-30 17:00",21.44,"Working","OW424"
"2023-03-30 18:00",21.418,"Working","OW424"
"2023-03-30 19:00",21.4,"Working","OW424"
"2023-03-30 20:00",21.387,"Working","OW424"
"2023-03-30 21:00",21.38,"Working","OW424"
"2023-03-30 22:00",21.377,"Working","OW424"
"2023-03-30 23:00",21.376,"Working","OW424"
"2023-03-31 00:00",21.375,"Working","OW424"
"2023-03-31 01:00",21.371,"Working","OW424"
"2023-03-31 02:00",21.365,"Working","OW424"
"2023-03-31 03:00",21.356,"Working","OW424"
"2023-03-31 04:00",21.35,"Working","OW424"
"2023-03-31 05:00",21.35,"Working","OW424"
"2023-03-31 06:00",21.356,"Working","OW424"
"2023-03-31 07:00",21.366,"Working","OW424"
"2023-03-31 08:00",21.377,"Working","OW424"
"2023-03-31 09:00",21.387,"Working","OW424"
"2023-03-31 10:00",21.395,"Working","OW424"
"2023-03-31 11:00",21.395,"Working","OW424"
"2023-03-31 12:00",21.392,"Working","OW424"
"2023-03-31 13:00",21.381,"Working","OW424"
"2023-03-31 14:00",21.369,"Working","OW424"
"2023-03-31 15:00",21.353,"Working","OW424"
"2023-03-31 16:00",21.334,"Working","OW424"
"2023-03-31 17:00",21.314,"Working","OW424"
"2023-03-31 18:00",21.299,"Working","OW424"
"2023-03-31 19:00",21.291,"Working","OW424"
"2023-03-31 20:00",21.289,"Working","OW424"
"2023-03-31 21:00",21.291,"Working","OW424"
"2023-03-31 22:00",21.293,"Working","OW424"
"2023-03-31 23:00",21.292,"Working","OW424"
"2023-04-01 00:00",21.292,"Working","OW424"
"2023-04-01 01:00",21.29,"Working","OW424"
"2023-04-01 02:00",21.286,"Working","OW424"
"2023-04-01 03:00",21.278,"Working","OW424"
"2023-04-01 04:00",21.271,"Working","OW424"
"2023-04-01 05:00",21.269,"Working","OW424"
"2023-04-01 06:00",21.27,"Working","OW424"
"2023-04-01 07:00",21.275,"Working","OW424"
"2023-04-01 08:00",21.283,"Working","OW424"
"2023-04-01 09:00",21.295,"Working","OW424"
"2023-04-01 10:00",21.304,"Working","OW424"
"2023-04-01 11:00",21.309,"Working","OW424"
"2023-04-01 12:00",21.309,"Working","OW424"
"2023-04-01 13:00",21.307,"Working","OW424"
"2023-04-01 14:00",21.301,"Working","OW424"
"2023-04-01 15:00",21.293,"Working","OW424"
"2023-04-01 16:00",21.282,"Working","OW424"
"2023-04-01 17:00",21.274,"Working","OW424"
"2023-04-01 18:00",21.271,"Working","OW424"
"2023-04-01 19:00",21.274,"Working","OW424"
"2023-04-01 20:00",21.281,"Working","OW424"
"2023-04-01 21:00",21.289,"Working","OW424"
"2023-04-01 22:00",21.297,"Working","OW424"
"2023-04-01 23:00",21.303,"Working","OW424"
"2023-04-02 00:00",21.305,"Working","OW424"
"2023-04-02 01:00",21.305,"Working","OW424"
"2023-04-02 02:00",21.3,"Working","OW424"
"2023-04-02 03:00",21.29,"Working","OW424"
"2023-04-02 04:00",21.282,"Working","OW424"
"2023-04-02 05:00",21.28,"Working","OW424"
"2023-04-02 06:00",21.283,"Working","OW424"
"2023-04-02 07:00",21.29,"Working","OW424"
"2023-04-02 08:00",21.299,"Working","OW424"
"2023-04-02 09:00",21.309,"Working","OW424"
"2023-04-02 10:00",21.316,"Working","OW424"
"2023-04-02 11:00",21.319,"Working","OW424"
"2023-04-02 12:00",21.315,"Working","OW424"
"2023-04-02 13:00",21.308,"Working","OW424"
"2023-04-02 14:00",21.301,"Working","OW424"
"2023-04-02 15:00",21.29,"Working","OW424"
"2023-04-02 16:00",21.279,"Working","OW424"
"2023-04-02 17:00",21.266,"Working","OW424"
"2023-04-02 18:00",21.252,"Working","OW424"
"2023-04-02 19:00",21.244,"Working","OW424"
"2023-04-02 20:00",21.242,"Working","OW424"
"2023-04-02 21:00",21.247,"Working","OW424"
"2023-04-02 22:00",21.254,"Working","OW424"
"2023-04-02 23:00",21.268,"Working","OW424"
"2023-04-03 00:00",21.279,"Working","OW424"
"2023-04-03 01:00",21.289,"Working","OW424"
"2023-04-03 02:00",21.3,"Working","OW424"
"2023-04-03 03:00",21.312,"Working","OW424"
"2023-04-03 04:00",21.322,"Working","OW424"
"2023-04-03 05:00",21.33,"Working","OW424"
"2023-04-03 06:00",21.333,"Working","OW424"
"2023-04-03 07:00",21.332,"Working","OW424"
"2023-04-03 08:00",21.326,"Working","OW424"
"2023-04-03 09:00",21.318,"Working","OW424"
"2023-04-03 10:00",21.315,"Working","OW424"
"2023-04-03 11:00",21.316,"Working","OW424"
"2023-04-03 12:00",21.32,"Working","OW424"
"2023-04-03 13:00",21.326,"Working","OW424"
"2023-04-03 14:00",21.332,"Working","OW424"
"2023-04-03 15:00",21.333,"Working","OW424"
"2023-04-03 16:00",21.332,"Working","OW424"
"2023-04-03 17:00",21.327,"Working","OW424"
"2023-04-03 18:00",21.319,"Working","OW424"
"2023-04-03 19:00",21.309,"Working","OW424"
"2023-04-03 20:00",21.296,"Working","OW424"
"2023-04-03 21:00",21.281,"Working","OW424"
"2023-04-03 22:00",21.267,"Working","OW424"
"2023-04-03 23:00",21.258,"Working","OW424"
"2023-04-04 00:00",21.254,"Working","OW424"
"2023-04-04 01:00",21.257,"Working","OW424"
"2023-04-04 02:00",21.262,"Working","OW424"
"2023-04-04 03:00",21.267,"Working","OW424"
"2023-04-04 04:00",21.264,"Working","OW424"
"2023-04-04 05:00",21.262,"Working","OW424"
"2023-04-04 06:00",21.262,"Working","OW424"
"2023-04-04 07:00",21.268,"Working","OW424"
"2023-04-04 08:00",21.277,"Working","OW424"
"2023-04-04 09:00",21.288,"Working","OW424"
"2023-04-04 10:00",21.297,"Working","OW424"
"2023-04-04 11:00",21.303,"Working","OW424"
"2023-04-04 12:00",21.304,"Working","OW424"
"2023-04-04 13:00",21.301,"Working","OW424"
"2023-04-04 14:00",21.294,"Working","OW424"
"2023-04-04 15:00",21.285,"Working","OW424"
"2023-04-04 16:00",21.273,"Working","OW424"
"2023-04-04 17:00",21.258,"Working","OW424"
"2023-04-04 18:00",21.245,"Working","OW424"
"2023-04-04 19:00",21.239,"Working","OW424"
"2023-04-04 20:00",21.238,"Working","OW424"
"2023-04-04 21:00",21.244,"Working","OW424"
"2023-04-04 22:00",21.254,"Working","OW424"
"2023-04-04 23:00",21.263,"Working","OW424"
"2023-04-05 00:00",21.271,"Working","OW424"
"2023-04-05 01:00",21.276,"Working","OW424"
"2023-04-05 02:00",21.281,"Working","OW424"
"2023-04-05 03:00",21.29,"Working","OW424"
"2023-04-05 04:00",21.3,"Working","OW424"
"2023-04-05 05:00",21.313,"Working","OW424"
"2023-04-05 06:00",21.327,"Working","OW424"
"2023-04-05 07:00",21.343,"Working","OW424"
"2023-04-05 08:00",21.358,"Working","OW424"
"2023-04-05 09:00",21.373,"Working","OW424"
"2023-04-05 10:00",21.389,"Working","OW424"
"2023-04-05 11:00",21.403,"Working","OW424"
"2023-04-05 12:00",21.414,"Working","OW424"
"2023-04-05 13:00",21.424,"Working","OW424"
"2023-04-05 14:00",21.434,"Working","OW424"
"2023-04-05 15:00",21.444,"Working","OW424"
"2023-04-05 16:00",21.454,"Working","OW424"
"2023-04-05 17:00",21.464,"Working","OW424"
"2023-04-05 18:00",21.472,"Working","OW424"
"2023-04-05 19:00",21.475,"Working","OW424"
"2023-04-05 20:00",21.474,"Working","OW424"
"2023-04-05 21:00",21.47,"Working","OW424"
"2023-04-05 22:00",21.461,"Working","OW424"
"2023-04-05 23:00",21.453,"Working","OW424"
"2023-04-06 00:00",21.448,"Working","OW424"
"2023-04-06 01:00",21.444,"Working","OW424"
"2023-04-06 02:00",21.444,"Working","OW424"
"2023-04-06 03:00",21.444,"Working","OW424"
"2023-04-06 04:00",21.447,"Working","OW424"
"2023-04-06 05:00",21.452,"Working","OW424"
"2023-04-06 06:00",21.457,"Working","OW424"
"2023-04-06 07:00",21.463,"Working","OW424"
"2023-04-06 08:00",21.469,"Working","OW424"
"2023-04-06 09:00",21.475,"Working","OW424"
"2023-04-06 10:00",21.481,"Working","OW424"
"2023-04-06 11:00",21.485,"Working","OW424"
"2023-04-06 12:00",21.489,"Working","OW424"
"2023-04-06 13:00",21.493,"Working","OW424"
"2023-04-06 14:00",21.496,"Working","OW424"
"2023-04-06 15:00",21.5,"Working","OW424"
"2023-04-06 16:00",21.503,"Working","OW424"
"2023-04-06 17:00",21.507,"Working","OW424"
"2023-04-06 18:00",21.513,"Working","OW424"
"2023-04-06 20:00",21.517,"Working","OW424"
"2023-04-06 21:00",21.514,"Working","OW424"
"2023-04-06 22:00",21.506,"Working","OW424"
"2023-04-06 23:00",21.493,"Working","OW424"
"2023-04-07 00:00",21.477,"Working","OW424"
"2023-04-07 01:00",21.463,"Working","OW424"
"2023-04-07 02:00",21.45,"Working","OW424"
"2023-04-07 03:00",21.441,"Working","OW424"
"2023-04-07 04:00",21.436,"Working","OW424"
"2023-04-07 05:00",21.436,"Working","OW424"
"2023-04-07 06:00",21.435,"Working","OW424"
"2023-04-07 07:00",21.437,"Working","OW424"
"2023-04-07 08:00",21.441,"Working","OW424"
"2023-04-07 09:00",21.446,"Working","OW424"
"2023-04-07 10:00",21.452,"Working","OW424"
"2023-04-07 11:00",21.459,"Working","OW424"
"2023-04-07 12:00",21.467,"Working","OW424"
"2023-04-07 13:00",21.476,"Working","OW424"
"2023-04-07 14:00",21.483,"Working","OW424"
"2023-04-07 15:00",21.484,"Working","OW424"
"2023-04-07 16:00",21.482,"Working","OW424"
"2023-04-07 17:00",21.476,"Working","OW424"
"2023-04-07 18:00",21.469,"Working","OW424"
"2023-04-07 19:00",21.465,"Working","OW424"
"2023-04-07 20:00",21.463,"Working","OW424"
"2023-04-07 21:00",21.465,"Working","OW424"
"2023-04-07 22:00",21.467,"Working","OW424"
"2023-04-07 23:00",21.471,"Working","OW424"
"2023-04-08 00:00",21.476,"Working","OW424"
"2023-04-08 01:00",21.482,"Working","OW424"
"2023-04-08 02:00",21.49,"Working","OW424"
"2023-04-08 03:00",21.497,"Working","OW424"
"2023-04-08 04:00",21.505,"Working","OW424"
"2023-04-08 05:00",21.514,"Working","OW424"
"2023-04-08 06:00",21.524,"Working","OW424"
"2023-04-08 07:00",21.53,"Working","OW424"
"2023-04-08 08:00",21.537,"Working","OW424"
"2023-04-08 09:00",21.543,"Working","OW424"
"2023-04-08 10:00",21.548,"Working","OW424"
"2023-04-08 11:00",21.551,"Working","OW424"
"2023-04-08 12:00",21.553,"Working","OW424"
"2023-04-08 13:00",21.554,"Working","OW424"
"2023-04-08 14:00",21.556,"Working","OW424"
"2023-04-08 15:00",21.559,"Working","OW424"
"2023-04-08 16:00",21.564,"Working","OW424"
"2023-04-08 17:00",21.57,"Working","OW424"
"2023-04-08 18:00",21.578,"Working","OW424"
"2023-04-08 19:00",21.587,"Working","OW424"
"2023-04-08 20:00",21.597,"Working","OW424"
"2023-04-08 21:00",21.605,"Working","OW424"
"2023-04-08 22:00",21.613,"Working","OW424"
"2023-04-08 23:00",21.62,"Working","OW424"
"2023-04-09 00:00",21.627,"Working","OW424"
"2023-04-09 01:00",21.633,"Working","OW424"
"2023-04-09 02:00",21.637,"Working","OW424"
"2023-04-09 03:00",21.642,"Working","OW424"
"2023-04-09 04:00",21.646,"Working","OW424"
"2023-04-09 05:00",21.651,"Working","OW424"
"2023-04-09 06:00",21.655,"Working","OW424"
"2023-04-09 07:00",21.658,"Working","OW424"
"2023-04-09 08:00",21.662,"Working","OW424"
"2023-04-09 09:00",21.664,"Working","OW424"
"2023-04-09 10:00",21.665,"Working","OW424"
"2023-04-09 11:00",21.663,"Working","OW424"
"2023-04-09 12:00",21.66,"Working","OW424"
"2023-04-09 13:00",21.657,"Working","OW424"
"2023-04-09 14:00",21.653,"Working","OW424"
"2023-04-09 15:00",21.647,"Working","OW424"
"2023-04-09 16:00",21.644,"Working","OW424"
"2023-04-09 17:00",21.64,"Working","OW424"
"2023-04-09 18:00",21.636,"Working","OW424"
"2023-04-09 19:00",21.634,"Working","OW424"
"2023-04-09 20:00",21.632,"Working","OW424"
"2023-04-09 21:00",21.629,"Working","OW424"
"2023-04-09 22:00",21.628,"Working","OW424"
"2023-04-09 23:00",21.635,"Working","OW424"
"2023-04-10 00:00",21.64,"Working","OW424"
"2023-04-10 01:00",21.648,"Working","OW424"
"2023-04-10 02:00",21.657,"Working","OW424"
"2023-04-10 03:00",21.664,"Working","OW424"
"2023-04-10 04:00",21.672,"Working","OW424"
"2023-04-10 05:00",21.679,"Working","OW424"
"2023-04-10 06:00",21.685,"Working","OW424"
"2023-04-10 07:00",21.69,"Working","OW424"
"2023-04-10 08:00",21.695,"Working","OW424"
"2023-04-10 09:00",21.702,"Working","OW424"
"2023-04-10 10:00",21.707,"Working","OW424"
"2023-04-10 11:00",21.711,"Working","OW424"
"2023-04-10 12:00",21.714,"Working","OW424"
"2023-04-10 13:00",21.717,"Working","OW424"
"2023-04-10 14:00",21.721,"Working","OW424"
"2023-04-10 15:00",21.722,"Working","OW424"
"2023-04-10 16:00",21.724,"Working","OW424"
"2023-04-10 17:00",21.725,"Working","OW424"
"2023-04-10 18:00",21.727,"Working","OW424"
"2023-04-10 19:00",21.729,"Working","OW424"
"2023-04-10 20:00",21.729,"Working","OW424"
"2023-04-10 21:00",21.721,"Working","OW424"
"2023-04-10 22:00",21.708,"Working","OW424"
"2023-04-10 23:00",21.697,"Working","OW424"
"2023-04-11 00:00",21.684,"Working","OW424"
"2023-04-11 01:00",21.67,"Working","OW424"
"2023-04-11 02:00",21.656,"Working","OW424"
"2023-04-11 03:00",21.644,"Working","OW424"
"2023-04-11 04:00",21.635,"Working","OW424"
"2023-04-11 05:00",21.628,"Working","OW424"
"2023-04-11 06:00",21.623,"Working","OW424"
"2023-04-11 07:00",21.617,"Working","OW424"
"2023-04-11 08:00",21.612,"Working","OW424"
"2023-04-11 09:00",21.608,"Working","OW424"
"2023-04-11 10:00",21.606,"Working","OW424"
"2023-04-11 11:00",21.603,"Working","OW424"
"2023-04-11 12:00",21.6,"Working","OW424"
"2023-04-11 13:00",21.6,"Working","OW424"
"2023-04-11 14:00",21.6,"Working","OW424"
"2023-04-11 15:00",21.598,"Working","OW424"
"2023-04-11 16:00",21.597,"Working","OW424"
"2023-04-11 17:00",21.596,"Working","OW424"
"2023-04-11 18:00",21.596,"Working","OW424"
"2023-04-11 19:00",21.599,"Working","OW424"
"2023-04-11 20:00",21.604,"Working","OW424"
"2023-04-11 21:00",21.611,"Working","OW424"
"2023-04-11 22:00",21.617,"Working","OW424"
"2023-04-11 23:00",21.624,"Working","OW424"
"2023-04-12 00:00",21.632,"Working","OW424"
"2023-04-12 01:00",21.64,"Working","OW424"
"2023-04-12 02:00",21.647,"Working","OW424"
"2023-04-12 03:00",21.654,"Working","OW424"
"2023-04-12 04:00",21.662,"Working","OW424"
"2023-04-12 05:00",21.669,"Working","OW424"
"2023-04-12 06:00",21.674,"Working","OW424"
"2023-04-12 07:00",21.68,"Working","OW424"
"2023-04-12 08:00",21.686,"Working","OW424"
"2023-04-12 09:00",21.691,"Working","OW424"
"2023-04-12 10:00",21.696,"Working","OW424"
"2023-04-12 11:00",21.701,"Working","OW424"
"2023-04-12 12:00",21.706,"Working","OW424"
"2023-04-12 13:00",21.709,"Working","OW424"
"2023-04-12 14:00",21.711,"Working","OW424"
"2023-04-12 15:00",21.708,"Working","OW424"
"2023-04-12 16:00",21.702,"Working","OW424"
"2023-04-12 17:00",21.691,"Working","OW424"
"2023-04-12 18:00",21.679,"Working","OW424"
"2023-04-12 19:00",21.67,"Working","OW424"
"2023-04-12 20:00",21.664,"Working","OW424"
"2023-04-12 21:00",21.66,"Working","OW424"
"2023-04-12 22:00",21.659,"Working","OW424"
"2023-04-12 23:00",21.659,"Working","OW424"
"2023-04-13 00:00",21.654,"Working","OW424"
"2023-04-13 01:00",21.648,"Working","OW424"
"2023-04-13 02:00",21.643,"Working","OW424"
"2023-04-13 03:00",21.64,"Working","OW424"
"2023-04-13 04:00",21.638,"Working","OW424"
"2023-04-13 05:00",21.639,"Working","OW424"
"2023-04-13 06:00",21.64,"Working","OW424"
"2023-04-13 07:00",21.64,"Working","OW424"
"2023-04-13 08:00",21.641,"Working","OW424"
"2023-04-13 09:00",21.643,"Working","OW424"
"2023-04-13 10:00",21.645,"Working","OW424"
"2023-04-13 11:00",21.646,"Working","OW424"
"2023-04-13 12:00",21.648,"Working","OW424"
"2023-04-13 13:00",21.649,"Working","OW424"
"2023-04-13 14:00",21.65,"Working","OW424"
"2023-04-13 15:00",21.653,"Working","OW424"
"2023-04-13 16:00",21.654,"Working","OW424"
"2023-04-13 17:00",21.652,"Working","OW424"
"2023-04-13 18:00",21.646,"Working","OW424"
"2023-04-13 19:00",21.635,"Working","OW424"
"2023-04-13 20:00",21.623,"Working","OW424"
"2023-04-13 21:00",21.61,"Working","OW424"
"2023-04-13 22:00",21.602,"Working","OW424"
"2023-04-13 23:00",21.595,"Working","OW424"
"2023-04-14 00:00",21.591,"Working","OW424"
"2023-04-14 01:00",21.591,"Working","OW424"
"2023-04-14 02:00",21.592,"Working","OW424"
"2023-04-14 03:00",21.595,"Working","OW424"
"2023-04-14 04:00",21.596,"Working","OW424"
"2023-04-14 05:00",21.595,"Working","OW424"
"2023-04-14 06:00",21.589,"Working","OW424"
"2023-04-14 07:00",21.581,"Working","OW424"
"2023-04-14 08:00",21.577,"Working","OW424"
"2023-04-14 09:00",21.573,"Working","OW424"
"2023-04-14 10:00",21.571,"Working","OW424"
"2023-04-14 11:00",21.572,"Working","OW424"
"2023-04-14 12:00",21.572,"Working","OW424"
"2023-04-14 13:00",21.571,"Working","OW424"
"2023-04-14 14:00",21.57,"Working","OW424"
"2023-04-14 15:00",21.566,"Working","OW424"
"2023-04-14 16:00",21.559,"Working","OW424"
"2023-04-14 17:00",21.548,"Working","OW424"
"2023-04-14 18:00",21.538,"Working","OW424"
"2023-04-14 19:00",21.534,"Working","OW424"
"2023-04-14 20:00",21.532,"Working","OW424"
"2023-04-14 21:00",21.53,"Working","OW424"
"2023-04-14 22:00",21.53,"Working","OW424"
"2023-04-14 23:00",21.531,"Working","OW424"
"2023-04-15 00:00",21.533,"Working","OW424"
"2023-04-15 01:00",21.535,"Working","OW424"
"2023-04-15 02:00",21.54,"Working","OW424"
"2023-04-15 03:00",21.545,"Working","OW424"
"2023-04-15 04:00",21.551,"Working","OW424"
"2023-04-15 05:00",21.559,"Working","OW424"
"2023-04-15 06:00",21.567,"Working","OW424"
"2023-04-15 07:00",21.573,"Working","OW424"
"2023-04-15 08:00",21.58,"Working","OW424"
"2023-04-15 09:00",21.586,"Working","OW424"
"2023-04-15 10:00",21.591,"Working","OW424"
"2023-04-15 11:00",21.596,"Working","OW424"
"2023-04-15 12:00",21.602,"Working","OW424"
"2023-04-15 13:00",21.606,"Working","OW424"
"2023-04-15 14:00",21.611,"Working","OW424"
"2023-04-15 15:00",21.618,"Working","OW424"
"2023-04-15 16:00",21.627,"Working","OW424"
"2023-04-15 17:00",21.634,"Working","OW424"
"2023-04-15 18:00",21.639,"Working","OW424"
"2023-04-15 19:00",21.645,"Working","OW424"
"2023-04-15 20:00",21.652,"Working","OW424"
"2023-04-15 21:00",21.657,"Working","OW424"
"2023-04-15 22:00",21.661,"Working","OW424"
"2023-04-15 23:00",21.664,"Working","OW424"
"2023-04-16 00:00",21.665,"Working","OW424"
"2023-04-16 01:00",21.664,"Working","OW424"
"2023-04-16 02:00",21.664,"Working","OW424"
"2023-04-16 03:00",21.663,"Working","OW424"
"2023-04-16 04:00",21.662,"Working","OW424"
"2023-04-16 05:00",21.663,"Working","OW424"
"2023-04-16 06:00",21.662,"Working","OW424"
"2023-04-16 07:00",21.662,"Working","OW424"
"2023-04-16 08:00",21.659,"Working","OW424"
"2023-04-16 09:00",21.657,"Working","OW424"
"2023-04-16 10:00",21.654,"Working","OW424"
"2023-04-16 11:00",21.65,"Working","OW424"
"2023-04-16 12:00",21.647,"Working","OW424"
"2023-04-16 13:00",21.642,"Working","OW424"
"2023-04-16 14:00",21.637,"Working","OW424"
"2023-04-16 15:00",21.635,"Working","OW424"
"2023-04-16 16:00",21.631,"Working","OW424"
"2023-04-16 17:00",21.627,"Working","OW424"
"2023-04-16 18:00",21.621,"Working","OW424"
"2023-04-16 19:00",21.613,"Working","OW424"
"2023-04-16 20:00",21.601,"Working","OW424"
"2023-04-16 21:00",21.584,"Working","OW424"
"2023-04-16 22:00",21.567,"Working","OW424"
"2023-04-16 23:00",21.554,"Working","OW424"
"2023-04-17 00:00",21.544,"Working","OW424"
"2023-04-17 01:00",21.538,"Working","OW424"
"2023-04-17 02:00",21.537,"Working","OW424"
"2023-04-17 03:00",21.541,"Working","OW424"
"2023-04-17 04:00",21.55,"Working","OW424"
"2023-04-17 05:00",21.563,"Working","OW424"
"2023-04-17 06:00",21.576,"Working","OW424"
"2023-04-17 07:00",21.587,"Working","OW424"
"2023-04-17 08:00",21.595,"Working","OW424"
"2023-04-17 09:00",21.602,"Working","OW424"
"2023-04-17 10:00",21.607,"Working","OW424"
"2023-04-17 11:00",21.607,"Working","OW424"
"2023-04-17 12:00",21.606,"Working","OW424"
"2023-04-17 13:00",21.604,"Working","OW424"
"2023-04-17 14:00",21.6,"Working","OW424"
"2023-04-17 15:00",21.593,"Working","OW424"
"2023-04-17 16:00",21.582,"Working","OW424"
"2023-04-17 17:00",21.569,"Working","OW424"
"2023-04-17 18:00",21.558,"Working","OW424"
"2023-04-17 19:00",21.548,"Working","OW424"
"2023-04-17 20:00",21.542,"Working","OW424"
"2023-04-17 21:00",21.537,"Working","OW424"
"2023-04-17 22:00",21.535,"Working","OW424"
"2023-04-17 23:00",21.533,"Working","OW424"
"2023-04-18 00:00",21.532,"Working","OW424"
"2023-04-18 01:00",21.533,"Working","OW424"
"2023-04-18 02:00",21.534,"Working","OW424"
"2023-04-18 03:00",21.536,"Working","OW424"
"2023-04-18 04:00",21.538,"Working","OW424"
"2023-04-18 05:00",21.542,"Working","OW424"
"2023-04-18 06:00",21.543,"Working","OW424"
"2023-04-18 07:00",21.546,"Working","OW424"
"2023-04-18 08:00",21.549,"Working","OW424"
"2023-04-18 09:00",21.552,"Working","OW424"
"2023-04-18 10:00",21.555,"Working","OW424"
"2023-04-18 11:00",21.556,"Working","OW424"
"2023-04-18 12:00",21.558,"Working","OW424"
"2023-04-18 13:00",21.561,"Working","OW424"
"2023-04-18 14:00",21.563,"Working","OW424"
"2023-04-18 15:00",21.567,"Working","OW424"
"2023-04-18 16:00",21.573,"Working","OW424"
"2023-04-18 17:00",21.582,"Working","OW424"
"2023-04-18 18:00",21.597,"Working","OW424"
"2023-04-18 19:00",21.612,"Working","OW424"
"2023-04-18 20:00",21.627,"Working","OW424"
"2023-04-18 21:00",21.64,"Working","OW424"
"2023-04-18 22:00",21.651,"Working","OW424"
"2023-04-18 23:00",21.659,"Working","OW424"
"2023-04-19 00:00",21.667,"Working","OW424"
"2023-04-19 01:00",21.674,"Working","OW424"
"2023-04-19 02:00",21.679,"Working","OW424"
"2023-04-19 03:00",21.685,"Working","OW424"
"2023-04-19 04:00",21.69,"Working","OW424"
"2023-04-19 05:00",21.696,"Working","OW424"
"2023-04-19 06:00",21.7,"Working","OW424"
"2023-04-19 07:00",21.705,"Working","OW424"
"2023-04-19 08:00",21.709,"Working","OW424"
"2023-04-19 09:00",21.713,"Working","OW424"
"2023-04-19 10:00",21.715,"Working","OW424"
"2023-04-19 11:00",21.719,"Working","OW424"
"2023-04-19 12:00",21.721,"Working","OW424"
"2023-04-19 13:00",21.724,"Working","OW424"
"2023-04-19 14:00",21.726,"Working","OW424"
"2023-04-19 15:00",21.728,"Working","OW424"
"2023-04-19 16:00",21.732,"Working","OW424"
"2023-04-19 17:00",21.735,"Working","OW424"
"2023-04-19 18:00",21.739,"Working","OW424"
"2023-04-19 19:00",21.742,"Working","OW424"
"2023-04-19 20:00",21.746,"Working","OW424"
"2023-04-19 21:00",21.75,"Working","OW424"
"2023-04-19 22:00",21.755,"Working","OW424"
"2023-04-19 23:00",21.757,"Working","OW424"
"2023-04-20 00:00",21.76,"Working","OW424"
"2023-04-20 01:00",21.764,"Working","OW424"
"2023-04-20 02:00",21.767,"Working","OW424"
"2023-04-20 03:00",21.77,"Working","OW424"
"2023-04-20 04:00",21.773,"Working","OW424"
"2023-04-20 05:00",21.776,"Working","OW424"
"2023-04-20 06:00",21.779,"Working","OW424"